Regional Weather Roundup
Issued by NWS

Home | Current Version | Previous Version | Graphics & Text | Print | Product List | Glossary On
Versions: 1 2 3 4 5 6 7 8 9 10 11 12 13 14 15 16 17 18 19 20 21 22 23 24 25 26 27
000
ASUS45 KTFX 231810
RWRMT
MONTANA REGIONAL WEATHER ROUNDUP
NATIONAL WEATHER SERVICE GREAT FALLS MT
1100 AM MST THU NOV 23 2017

NOTE: "FAIR" INDICATES FEW OR NO CLOUDS BELOW 12000 FEET WITH NO
SIGNIFICANT WEATHER AND/OR OBSTRUCTIONS TO VISIBILITY.

MTZ001>007-043-231900-
WEST OF THE DIVIDE

CITY           SKY/WX    TMP DP  RH WIND       PRES   REMARKS
KALISPELL      CLOUDY    55  51  86 SW16      29.73F
MISSOULA       LGT RAIN  52  47  83 W3        29.85F
BUTTE          PTSUNNY   51  33  50 S9        29.97F
MULLAN PASS    RAIN      41  40  96 SW16G29   29.85S FOG
ANACONDA         N/A     55  37  50 SW28G35   29.92S
DEER LODGE       N/A     57  39  51 SE6       29.91F
EUREKA           N/A     57  45  62 MISG        N/A
HAMILTON         N/A     61  39  44 S17       29.87F
LIBBY            N/A     50  50 100 CALM      29.70F
PLAINS           N/A     56  48  74 SE3       29.82
RONAN            N/A     57  44  62 W7        29.86F
$$

MTZ008-052>055-231900-
SOUTHWEST MONTANA

CITY           SKY/WX    TMP DP  RH WIND       PRES   REMARKS
BOZEMAN        CLOUDY    58  36  43 SW10      29.93F
DILLON         FAIR      58  36  43 SW18G26   29.98F
W YELLOWSTONE  CLOUDY    45  37  76 S9G16     30.17S
ENNIS          CLOUDY    57  37  47 S26G35    30.05F
TWIN BRIDGES     N/A     61  34  36 S13       29.96
$$

MTZ009-010-012-014-046-048-049-054-231900-
EAST SLOPES AND CENTRAL MONTANA

CITY           SKY/WX    TMP DP  RH WIND       PRES   REMARKS
CUT BANK       FAIR      57  44  62 SW30G39   29.63R
GREAT FALLS    FAIR      65  35  33 SW30G41   29.71F
MALMSTROM AFB  FAIR      64  36  34 SW35G45   29.70F
HELENA         FAIR      54  39  57 MISG      29.83F
BOWMANS CRNR   FAIR      58  37  44 SW31G44   29.74F
CHOTEAU          N/A     63  37  39 SW38G56   29.65F
FAIRFIELD      FAIR      60  38  43 SW37G49   29.68F
POWER          FAIR      61  37  40 SW48G55   29.69S
RAYNESFORD     FAIR      64  33  32 W22G38    29.73F
ULM            FAIR      65  35  33 SW31G41   29.73F
$$

MTZ011-013-016-021-045-047-050-051-231900-
NORTH CENTRAL MONTANA

CITY           SKY/WX    TMP DP  RH WIND       PRES   REMARKS
HAVRE          FAIR      66  41  40 SW35G45   29.57F
LEWISTOWN      FAIR      64  34  32 SW23G33   29.75F
N BAR RANCH    FAIR      64  32  29 SW24G38   29.77F
CHINOOK          N/A     68  39  34 SW29G47   29.55F
DENTON         FAIR      65  35  32 W31G38    29.67F
GEYSER         FAIR      63  33  32 W40G56    29.69F
GRASS RANGE    FAIR      65  32  29 W29G36    29.70F
STANFORD       FAIR      63  32  31 W37G48    29.72S
WINIFRED       FAIR      65  36  34 W13G24    29.71F
$$

MTZ017>020-022>027-061-062-231900-
NORTHEAST MONTANA

CITY           SKY/WX    TMP DP  RH WIND       PRES   REMARKS
GLASGOW        FAIR      62  39  42 S9        29.61F
GLENDIVE       FAIR      57  41  55 SW9       29.71F
JORDAN           N/A     62  38  40 SW21      29.69F
SIDNEY         FAIR      52  41  66 S6        29.63F
WOLF POINT     FAIR      45  38  76 W7        29.62F
MALTA          SUNNY     68  39  34 SW25      29.59F
PLENTYWOOD       N/A     59  41  51 CALM      29.56F
POPLAR           N/A     46  37  71 SW6       29.60F
SCOBEY           N/A     62  37  39 SW31      29.56
$$

MTZ028>42-056>058-231900-
SOUTHCENTRAL AND SOUTHEAST MONTANA

CITY           SKY/WX    TMP DP  RH WIND       PRES   REMARKS
BAKER          FAIR      59  39  47 W18       29.77F
BILLINGS       FAIR      58  39  49 W15       29.83F
LIVINGSTON     FAIR      63  39  41 SW37G54   29.87F
MILES CITY     FAIR      52  41  66 SE6       29.77F
BIG TIMBER     SUNNY     63  36  36 W36G44    29.86R
EKALAKA          N/A     60  34  37 SW9       29.82
FORSYTH          N/A     66  37  34 SW12G20   29.77F
HARLOWTON      FAIR      65  33  31 W29G39    29.81F
LAUREL           N/A     61  37  41 SW18      29.84F
ROUNDUP          N/A     64  35  34 S21       29.71F
$$

REGIONAL REPORTS...DAKOTAS

CITY           SKY/WX    TMP DP  RH WIND       PRES   REMARKS
WILLISTON      FAIR      51  40  65 SW9       29.61F
MINOT          FAIR      55  39  54 SW16      29.58F
DICKINSON      FAIR      63  39  41 W21G28    29.69F
BEACH          FAIR      57  37  47 W16G28    29.75F
CROSBY         FAIR      54  41  62 SW17G25   29.54F
TIOGA          FAIR      48  45  87 SW12      29.61F
WATFORD CITY   FAIR      61  41  48 SW14      29.63F
BISMARCK       FAIR      54  40  59 SE3       29.70F
GRAND FORKS    CLOUDY    32  30  92 S15       29.74F WCI  22
FARGO          FAIR      36  28  73 SE16      29.77F WCI  26
RAPID CITY     FAIR      69  39  33 SE7       29.88F
$$

REGIONAL REPORTS...WYOMING/IDAHO/WASHINGTON

CITY           SKY/WX    TMP DP  RH WIND       PRES   REMARKS
GILLETTE       FAIR      62  35  36 SW20G28   29.90F
SHERIDAN       FAIR      57  42  57 N6        29.90S
BUFFALO WY     FAIR      54  31  41 CALM      29.95F
CODY           FAIR      62  33  33 SW15G26   29.99F
YELLOWSTONE LA   N/A     46  37  71 VRB3      30.21F
IDAHO FALLS    FAIR      46  40  79 SE6       30.16F
SALMON         CLOUDY    37  37 100 CALM      30.06F FOG
BOISE          FAIR      57  44  62 SE13      30.07F
SPOKANE        PTSUNNY   54  52  93 S22G30    29.77F
$$

REGIONAL REPORTS...ALBERTA

CITY           SKY/WX    TMP DP  RH WIND       PRES   REMARKS
EDMONTON       LGT RAIN  37  32  81 SW15G21   29.37R WCI  28
CALGARY        PTSUNNY   48  39  71 SW10G17   29.39F
LETHBRIDGE     MOSUNNY   59  45  58 SW29G38   29.49F
MEDICINE HAT   MOSUNNY   61  46  59 SW31G43   29.40F
$$

REGIONAL REPORTS...SASKATCHEWAN

CITY           SKY/WX    TMP DP  RH WIND       PRES   REMARKS
SWIFT CURRENT  PTSUNNY   50  41  71 SW28G33   29.39F
REGINA         MOSUNNY   39  34  81 S13       29.42F WCI  32
SASKATOON      CLOUDY    32  30  93 S10       29.28F WCI  24
$$




USA.gov is the U.S. government's official web portal to all federal, state and local government web resources and services.